Date String (YYYY-MM-DD hh:mm:ss) UTC,Instrument flags,absolute air pressure of the measurement (hPa),sample flow rate (lpm),inlet stack bypass flow (lpm),air temperature of the measurement (°C),ambient temperature measured by the external sensor (°C),aerosol sample conditioner tube jacket temperature (°C),OPC LED temperature (°C),internal box temperature (°C),relative humidity of the measurement (%),span deviation,mass concentration of particles derived from Lorenz-Mie calculation of OPC scattering (μg/m³),mass concentration of particles derived from Lorenz-Mie calculation of OPC scattering (μg/m³),mass concentration of particles derived from Lorenz-Mie calculation of OPC scattering (μg/m³)
DateTimeUTC,F1_M11,P_M11,Q1_M11,Q2_M11,T1_M11,T2_M11,T3_M11,T4_M11,T5_M11,U1_M11,ZSPAN_M11,X0_M11,X2_M11,X1_M11
2023-06-13 21:00:00,SystemResetWarning,0829.4,5.00,000.00,029.3,027.8,000.0,037.9,030.7,31.2,0001.9,0007.97,0004.77,0004.46
2023-06-13 21:01:00,SystemResetWarning,0829.4,4.99,000.00,029.3,027.8,000.0,037.9,030.8,30.8,0001.8,0007.80,0004.65,0004.33
2023-06-13 21:02:00,SystemResetWarning,0829.4,4.99,000.00,029.3,027.8,000.0,037.9,030.7,31.0,0001.5,0007.68,0004.53,0004.22
2023-06-13 21:03:00,SystemResetWarning,0829.3,5.00,000.00,029.3,027.8,000.0,037.9,030.8,31.1,0000.1,0007.67,0004.45,0004.11
2023-06-13 21:04:00,SystemResetWarning,0829.3,5.00,000.00,029.4,027.8,000.0,037.9,030.8,30.9,0000.0,0007.66,0004.41,0004.06
2023-06-13 21:05:00,SystemResetWarning,0829.3,5.01,000.00,029.4,027.8,000.0,037.9,030.8,31.5,0000.0,0007.23,0004.35,0004.01
2023-06-13 21:06:00,SystemResetWarning,0829.3,5.00,000.00,029.4,027.8,000.0,037.9,030.8,31.2,0000.0,0006.92,0004.32,0003.98
2023-06-13 21:07:00,SystemResetWarning,0829.3,5.01,000.00,029.4,027.8,000.0,037.9,030.8,30.5,0000.0,0006.87,0004.30,0003.97
2023-06-13 21:08:00,SystemResetWarning,0829.3,5.00,000.00,029.4,027.8,000.0,037.9,030.8,30.9,0000.0,0006.92,0004.26,0003.90
2023-06-13 21:09:00,SystemResetWarning,0829.4,4.99,000.00,029.4,027.8,000.0,037.9,030.8,30.7,0000.0,0006.79,0004.17,0003.80
2023-06-13 21:10:00,SystemResetWarning,0829.3,4.99,000.00,029.4,027.8,000.0,037.9,030.8,31.3,0000.0,0006.61,0004.08,0003.73
2023-06-13 21:11:00,SystemResetWarning,0829.4,5.00,000.00,029.4,027.8,000.0,037.9,030.8,30.5,0000.0,0006.51,0004.02,0003.68
2023-06-13 21:12:00,SystemResetWarning,0829.4,5.00,000.00,029.4,027.8,000.0,037.9,030.7,30.1,0000.0,0006.44,0003.96,0003.62
2023-06-13 21:13:00,SystemResetWarning,0829.4,4.99,000.00,029.4,027.8,000.0,037.9,030.8,30.8,0000.0,0006.45,0003.91,0003.56
2023-06-13 21:14:00,SystemResetWarning,0829.3,5.00,000.00,029.4,027.8,000.0,037.9,030.8,30.8,0000.0,0006.21,0003.83,0003.51
2023-06-13 21:15:00,SystemResetWarning,0829.2,5.00,000.00,029.4,027.8,000.0,037.9,030.8,31.7,0000.0,0006.31,0003.82,0003.48
2023-06-13 21:16:00,SystemResetWarning,0829.2,5.00,000.00,029.4,027.8,000.0,037.9,030.8,31.3,0000.0,0006.59,0003.83,0003.45
2023-06-13 21:17:00,SystemResetWarning,0829.2,5.00,000.00,029.4,027.8,000.0,037.9,030.8,29.9,0000.0,0006.46,0003.78,0003.40
2023-06-13 21:18:00,SystemResetWarning,0829.2,5.01,000.00,029.4,027.8,000.0,037.9,030.8,31.6,0000.0,0006.43,0003.78,0003.41
2023-06-13 21:19:00,SystemResetWarning,0829.2,5.01,000.00,029.4,027.8,000.0,037.9,030.8,31.5,0000.0,0006.32,0003.80,0003.45
2023-06-13 21:20:00,SystemResetWarning,0829.1,5.00,000.00,029.4,027.8,000.0,037.9,030.8,31.5,0000.0,0006.34,0003.84,0003.50
2023-06-13 21:21:00,SystemResetWarning,0829.1,4.99,000.00,029.4,027.8,000.0,037.9,030.8,31.3,0000.0,0006.38,0003.87,0003.53
2023-06-13 21:22:00,SystemResetWarning,0829.1,5.01,000.00,029.4,027.8,000.0,037.9,030.8,32.0,0000.0,0006.90,0003.92,0003.57
2023-06-13 21:23:00,SystemResetWarning,0829.1,5.00,000.00,029.4,027.9,000.0,038.0,030.8,31.1,0000.0,0007.22,0003.98,0003.63
2023-06-13 21:24:00,SystemResetWarning,0829.1,5.00,000.00,029.4,027.9,000.0,038.0,030.8,32.0,0000.0,0007.27,0004.04,0003.68
2023-06-13 21:25:00,SystemResetWarning,0829.1,5.00,000.00,029.4,027.9,000.0,038.0,030.8,31.0,0000.0,0007.43,0004.07,0003.71
2023-06-13 21:26:00,SystemResetWarning,0829.1,5.00,000.00,029.4,027.9,000.0,038.0,030.8,30.9,0000.0,0007.64,0004.06,0003.72
2023-06-13 21:27:00,SystemResetWarning,0829.0,5.00,000.00,029.4,027.9,000.0,038.0,030.8,30.3,0000.0,0007.47,0004.01,0003.71
2023-06-13 21:28:00,SystemResetWarning,0829.0,4.99,000.00,029.4,027.9,000.0,038.0,030.9,29.6,0000.0,0007.49,0004.02,0003.72
2023-06-13 21:29:00,SystemResetWarning,0829.1,5.00,000.00,029.4,027.9,000.0,038.0,030.9,30.4,0000.0,0007.53,0004.01,0003.69
2023-06-13 21:30:00,SystemResetWarning,0829.0,5.01,000.00,029.4,028.0,000.0,038.0,030.9,30.1,0000.0,0007.52,0003.92,0003.59
2023-06-13 21:31:00,SystemResetWarning,0828.9,5.01,000.00,029.4,028.0,000.0,038.0,030.9,29.4,0000.0,0007.46,0003.82,0003.47
2023-06-13 21:32:00,SystemResetWarning,0828.9,4.99,000.00,029.4,028.0,000.0,038.0,030.9,30.3,0000.0,0007.40,0003.73,0003.37
2023-06-13 21:33:00,SystemResetWarning,0829.0,4.99,000.00,029.5,028.0,000.0,038.0,031.0,30.4,0000.0,0006.85,0003.63,0003.28
2023-06-13 21:34:00,SystemResetWarning,0829.0,5.00,000.00,029.5,028.1,000.0,038.0,031.0,30.9,0000.0,0006.45,0003.54,0003.20
2023-06-13 21:35:00,SystemResetWarning,0828.9,5.00,000.00,029.5,028.1,000.0,038.0,031.0,30.5,0000.0,0006.25,0003.45,0003.12
2023-06-13 21:36:00,SystemResetWarning,0828.8,5.01,000.00,029.5,028.1,000.0,038.0,031.0,30.2,0000.0,0005.92,0003.38,0003.02
2023-06-13 21:37:00,SystemResetWarning,0828.8,4.99,000.00,029.5,028.2,000.0,038.0,031.0,30.6,0000.0,0005.69,0003.32,0002.89
2023-06-13 21:38:00,SystemResetWarning,0828.8,4.99,000.00,029.5,028.2,000.0,038.0,031.1,30.9,0000.0,0005.61,0003.29,0002.80
2023-06-13 21:39:00,SystemResetWarning,0828.8,5.00,000.00,029.6,028.2,000.0,038.0,031.1,28.8,0000.0,0005.44,0003.23,0002.71
2023-06-13 21:40:00,SystemResetWarning,0828.7,5.01,000.00,029.6,028.2,000.0,038.0,031.1,28.1,0000.0,0005.19,0003.14,0002.59
2023-06-13 21:41:00,SystemResetWarning,0828.7,5.01,000.00,029.6,028.2,000.0,038.1,031.1,27.3,0000.0,0004.86,0003.04,0002.49
2023-06-13 21:42:00,SystemResetWarning,0828.7,5.00,000.00,029.6,028.3,000.0,038.1,031.1,28.2,0000.0,0004.65,0002.95,0002.43
2023-06-13 21:43:00,SystemResetWarning,0828.7,4.99,000.00,029.6,028.3,000.0,038.1,031.1,28.4,0000.0,0004.46,0002.86,0002.37
2023-06-13 21:44:00,SystemResetWarning,0828.6,5.00,000.00,029.6,028.3,000.0,038.1,031.2,27.7,0000.0,0004.52,0002.84,0002.31
2023-06-13 21:45:00,SystemResetWarning,0828.6,5.01,000.00,029.6,028.4,000.0,038.1,031.2,28.0,0000.0,0004.32,0002.74,0002.22
2023-06-13 21:46:00,SystemResetWarning,0828.6,5.00,000.00,029.7,028.4,000.0,038.1,031.2,27.8,0000.0,0004.29,0002.69,0002.14
2023-06-13 21:47:00,SystemResetWarning,0828.6,5.00,000.00,029.7,028.4,000.0,038.1,031.2,28.8,0000.0,0004.24,0002.60,0002.05
2023-06-13 21:48:00,SystemResetWarning,0828.6,5.00,000.00,029.7,028.4,000.0,038.2,031.2,29.5,0000.0,0003.94,0002.50,0001.97
2023-06-13 21:49:00,SystemResetWarning,0828.6,5.00,000.00,029.7,028.4,000.0,038.2,031.2,29.1,0000.0,0003.91,0002.40,0001.91
2023-06-13 21:50:00,SystemResetWarning,0828.6,5.00,000.00,029.7,028.4,000.0,038.2,031.2,27.3,0000.0,0003.81,0002.35,0001.86
2023-06-13 21:51:00,SystemResetWarning,0828.6,5.00,000.00,029.7,028.4,000.0,038.2,031.2,27.3,0000.0,0003.92,0002.33,0001.85
2023-06-13 21:52:00,SystemResetWarning,0828.6,5.00,000.00,029.7,028.4,000.0,038.2,031.2,26.8,0000.0,0004.21,0002.32,0001.84
2023-06-13 21:53:00,SystemResetWarning,0828.5,5.00,000.00,029.7,028.4,000.0,038.2,031.2,27.1,0000.0,0004.11,0002.25,0001.80
2023-06-13 21:54:00,SystemResetWarning,0828.5,5.00,000.00,029.7,028.4,000.0,038.2,031.3,27.1,0000.0,0004.03,0002.20,0001.76
2023-06-13 21:55:00,SystemResetWarning,0828.5,5.00,000.00,029.8,028.4,000.0,038.2,031.3,25.7,0000.0,0003.88,0002.11,0001.71
2023-06-13 21:56:00,SystemResetWarning,0828.5,5.00,000.00,029.8,028.4,000.0,038.2,031.3,25.7,0000.0,0003.84,0002.08,0001.65
2023-06-13 21:57:00,SystemResetWarning,0828.6,5.01,000.00,029.8,028.4,000.0,038.3,031.3,25.4,0000.0,0003.63,0001.96,0001.59
2023-06-13 21:58:00,SystemResetWarning,0828.5,5.01,000.00,029.8,028.5,000.0,038.3,031.4,26.1,0000.0,0003.48,0001.91,0001.55
2023-06-13 21:59:00,SystemResetWarning,0828.5,5.00,000.00,029.9,028.5,000.0,038.3,031.4,25.4,0000.0,0003.30,0001.85,0001.50
